Location: Clegg Observatory
(38.9178°N, 78.6069°W)
Time: 14:05:20
(UTC-04:00)

Cosmos 1151 Rocket - Visible Passes

Search period start: 28 May 2015 00:00
Search period end: 07 June 2015 00:00
Orbit: 594 x 616 km, 82.5° (Epoch: 27 May)

Date Brightness Start Highest point End Pass type
(mag) Time Alt. Az. Time Alt. Az. Time Alt. Az.
28 May 4.4 01:11:49 10° NNW 01:14:33 35° NNW 01:14:33 35° NNW visible
28 May 5.1 23:48:20 10° NNE 23:50:40 18° ENE 23:50:40 18° ENE visible
29 May 4.8 01:25:08 10° NNW 01:27:32 26° NW 01:27:32 26° NW visible
30 May 4.6 00:00:45 10° NNE 00:03:39 27° NE 00:03:39 27° NE visible
30 May 5.3 01:38:47 10° NW 01:40:31 17° WNW 01:40:31 17° WNW visible
31 May 4.1 00:13:28 10° N 00:16:40 41° NNE 00:16:40 41° NNE visible
31 May 5.7 01:53:13 10° WNW 01:53:32 11° WNW 01:53:32 11° WNW visible
01 Jun 3.9 00:26:26 10° N 00:29:41 49° N 00:29:41 49° N visible
01 Jun 5.3 23:03:54 10° NE 23:05:50 13° ENE 23:05:50 13° ENE visible
02 Jun 4.2 00:39:35 10° NNW 00:42:42 39° NW 00:42:42 39° NW visible
02 Jun 4.8 23:15:50 10° NNE 23:18:52 21° ENE 23:18:52 21° ENE visible
03 Jun 4.8 00:52:59 10° NNW 00:55:44 26° WNW 00:55:44 26° WNW visible
03 Jun 4.1 23:28:21 10° N 23:31:55 34° ENE 23:31:55 34° ENE visible
04 Jun 5.3 01:06:47 10° NW 01:08:47 16° WNW 01:08:47 16° WNW visible
04 Jun 3.4 23:41:09 10° N 23:44:59 56° NE 23:44:59 56° NE visible
05 Jun 3.3 23:54:10 10° N 23:58:03 66° NW 23:58:03 66° NW visible
06 Jun 5.0 22:31:11 10° NE 22:33:38 15° ENE 22:34:16 15° E visible
